Weather in Vinodelnenskiy

Russia / Stavropol Krai     45°49′05″N   43°02′35″E
temp.,
°C
wind,
m/s
gust,
m/s
humid.,
%
clouds,
%
prec.,
mm/h
press.,
hPa
HPBL,
m
15 april, thu
thu1500:00+8w349485 0.0 101880
03:00+7w479441 0.0 1017121
06:00+7wnw349324 0.0 101880
09:00+13wnw45680 0.0 1018556
12:00+17nw56475 0.0 10171368
15:00+18nw5645100 0.0 10161616
18:00+16nw336377 0.0 101757
21:00+12wnw1170100 0.0 101810
16 april, fri
fri1600:00+10wnw338753 0.0 101843
03:00+10sw228335 0.0 101821
06:00+10sse1181100 0.0 101910
09:00+15e2364100 0.0 1019461
12:00+19ese45501 0.0 10181379
15:00+21ese564031 0.0 10172319
18:00+18se4755100 0.0 1017133
21:00+12nw3595100 3.8 1020250
17 april, sat
sat1700:00+10nnw1197100 1.0 101911
03:00+10w4697100 1.1 1020179
06:00+10wnw5996100 2.0 1021485
09:00+9w3594100 9.8 1022297
12:00+12w2479100 2.2 1022734
15:00+14wnw4458100 2.4 10221417
18:00+12w2370100 0.0 102364
21:00+10w2275100 0.0 102327
18 april, sun
sun1800:00+8w22775 0.0 102214
03:00+8ne1173100 0.0 102212
06:00+8e3479100 0.0 1021107
09:00+10e367792 0.0 1020272
12:00+15ese5563100 0.0 1017986
15:00+11nne4696100 7.3 1017251
18:00+10ene3699100 10.2 1017293
21:00+10e3698100 12.1 1017246
19 april, mon
mon1900:00+10e2498100 1.3 1017200
03:00+10e3596100 1.5 1016167
06:00+10e359649 0.0 1015165
09:00+12se229167 0.3 1016116
12:00+13se119498 1.6 101555
15:00+16nne2278100 1.8 1014628
18:00+12ne3596100 2.5 1015186
21:00+12ene4798100 4.8 1014274